Location: Unspecified
(34.4950°S, 58.5160°W)
Time: 14:04:14
(UTC+00:00)

BlueWalker 3 - Pass Details

Date: 17 February 2026
Orbit: 451 x 458 km, 53.2° (Epoch: 4 March)

Event Time Altitude Azimuth Distance (km) Brightness Sun altitude
Exits shadow 07:24:57 52° 130° (SE) 588 2.5 -24.2°
Drops below altitude 10° 07:28:24 10° 60° (ENE) 1,612 4.8 -23.6°
Sets 07:30:34 0° 55° (NE) 2,480 5.7 -23.2°
